Location: Amsterdam
(30.7274°N, 84.4357°W)
Time: 09:12:18
(UTC+00:00)

Injun/Solrad 3 - Visible Passes

Search period start: 17 February 2026 00:00
Search period end: 27 February 2026 00:00
Orbit: 873 x 983 km, 66.8° (Epoch: 16 February)

Date Brightness Start Highest point End Pass type
(mag) Time Alt. Az. Time Alt. Az. Time Alt. Az.
17 Feb 9.8 00:57:47 10° NNE 00:59:00 13° NNE 00:59:00 13° NNE visible
17 Feb 10.3 02:41:59 10° NNW 02:42:41 14° NNW 02:42:41 14° NNW visible
18 Feb 9.4 01:07:41 10° N 01:10:26 19° NNE 01:10:26 19° NNE visible
18 Feb 10.4 02:53:10 10° NW 02:54:06 15° NW 02:54:06 15° NW visible
19 Feb 8.9 01:18:05 10° N 01:21:59 30° NNE 01:21:59 30° NNE visible
19 Feb 10.5 03:04:40 10° NW 03:05:40 14° NW 03:05:40 14° NW visible
20 Feb 8.3 01:28:46 10° NNW 01:33:41 48° NNE 01:33:41 48° NNE visible
20 Feb 10.6 03:16:41 10° WNW 03:17:23 12° WNW 03:17:23 12° WNW visible
20 Feb 9.6 23:56:06 10° NNE 23:58:42 13° NE 00:01:19 10° ENE visible
21 Feb 7.9 01:39:40 10° NNW 01:45:37 81° N 01:45:37 81° N visible
22 Feb 9.2 00:05:40 10° N 00:10:07 20° NE 00:14:03 12° E visible
22 Feb 8.4 01:50:47 10° NNW 01:56:56 59° WSW 01:57:48 54° SW visible
23 Feb 8.7 00:15:57 10° N 00:21:23 31° ENE 00:26:35 11° ESE visible
23 Feb 9.2 02:02:11 10° NW 02:07:49 36° WSW 02:10:21 26° SSW visible
24 Feb 8.2 00:26:33 10° NNW 00:32:34 48° ENE 00:38:40 10° SE visible
24 Feb 10.0 02:13:58 10° WNW 02:18:40 22° WSW 02:23:24 10° SSW visible
25 Feb 7.9 00:37:23 10° NNW 00:43:39 76° ENE 00:50:01 10° SSE visible
25 Feb 10.7 02:26:45 10° WNW 02:29:26 13° WSW 02:32:07 10° SW visible
26 Feb 8.3 00:48:25 10° NNW 00:54:39 69° WSW 01:00:59 10° SSE visible
